Regional Weather Roundup
Issued by NWS Grand Forks, ND

Home | Current Version | Previous Version | Text Only | Print | Product List | Glossary Off
Versions: 1 2 3 4 5 6 7 8 9 10 11 12 13 14 15 16 17 18 19 20 21 22 23 24 25 26 27 28 29 30 31 32 33 34 35 36 37 38 39 40 41 42 43 44 45 46 47 48 49 50

000
ASUS43 KFGF 292331
RWRFGF
PRAIRIE TO PINES  WEATHER ROUNDUP
NATIONAL WEATHER SERVICE EASTERN NORTH DAKOTA/GRAND FORKS ND
600 PM CDT MON SEP 29 2014

 **SATELLITE DATA USED TO AUGMENT SKY COVER AT AUTOMATED STATIONS**
 *****  WEATHER ACROSS EASTERN NORTH DAKOTA  *****

CITY           SKY/WX    TMP DP  RH WIND       PRES   REMARKS
GRAND FORKS    PTSUNNY   60  48  64 NE7       30.11F
GRAND FRKS AFB FAIR      56  49  76 E3        30.13S
GRAND FRKS NWS   N/A     57 N/A N/A E1          N/A
DEVILS LAKE    CLOUDY    52  43  71 E10       30.08F
FARGO          FAIR      63  47  55 SE7       30.09F
WAHPETON ARPT  FAIR      59  45  58 E10       30.09F
$$

 ***** WEATHER ACROSS CENTRAL AND WESTERN NORTH DAKOTA  *****

CITY           SKY/WX    TMP DP  RH WIND       PRES   REMARKS
BISMARCK       CLOUDY    58  48  69 E13       30.02F
MINOT          CLOUDY    52  44  74 E13       30.04F
JAMESTOWN      FAIR      55  47  74 E10       30.07F
MINOT AFB      CLOUDY    51  46  83 E12       30.04F
GARRISON         N/A     55  48  77 E12       30.03F
WILLISTON      CLOUDY    52  45  77 SE13      29.99F
DICKINSON      LGT RAIN  49  47  93 E12       29.97F
HETTINGER      CLOUDY    50  49  96 SE16G23   29.98F FOG
$$

 *****  OTHER AIRPORT OBSERVATIONS IN OUR AREA  *****

CITY           SKY/WX    TMP DP  RH WIND       PRES   REMARKS
WALHALLA       CLOUDY    52  50  93 SE5       30.14S
GRAFTON AIRPOR MOCLDY    54  46  76 CALM      30.13F
VALLEY CITY AR FAIR      57  50  77 E7        30.08S
CANDO          CLOUDY    50  45  81 SE12      30.10F
CAVALIER APRT  CLOUDY    54  46  76 SE3       30.13F
GWINNER        PTCLDY    61  48  63 E12       30.07F
ROLLA          FAIR      50  41  71 SE10      30.10F
 ***** THE ABOVE OBSERVATIONS ARE NON NWS ARE NOT QUALITY
       CONTROLLED AND MAY MIS-REPORT RAIN FOR SNOW...
$$

  *****  WEATHER ACROSS NORTHERN MINNESOTA  *****

CITY           SKY/WX    TMP DP  RH WIND       PRES   REMARKS
FLAG ISLAND    CLOUDY    52  43  71 CALM      30.16F
WARROAD        MOCLDY    52  46  82 NE9       30.16F
ROSEAU         MOCLDY    54  46  76 E9        30.16S
HALLOCK        CLOUDY    54  46  76 NE6       30.13F
THF RVR FALLS  FAIR      55  43  62 E9        30.13F
BAUDETTE       CLOUDY    52  43  71 E9        30.17F
WASKISH        FAIR      52  45  76 CALM        N/A
CROOKSTON      FAIR      59  46  63 E8        30.12F
STEPHEN NDAWN    N/A     57  48  72 E6          N/A
GREENBUSH NDAW   N/A     55  46  71 E7          N/A
$$
  *****  WEATHER ACROSS CENTRAL AND WEST MINNESOTA  *****

CITY           SKY/WX    TMP DP  RH WIND       PRES   REMARKS
FOSSTON        FAIR      61  52  72 E3        30.13S
BEMIDJI        FAIR      53  43  68 E8        30.14F
PARK RAPIDS    FAIR      56  43  61 SE10      30.13F
ELBOW LAKE     MOCLDY    55  46  72 E12       30.10F
WADENA         FAIR      52  45  76 E7        30.13S
DETROIT LAKES  FAIR      57  45  62 SE8       30.12S
MOORHEAD       NOT AVBL
FERGUS FALLS   FAIR      57  45  62 E6        30.10S
MORRIS MN      FAIR      55  48  76 E10       30.09F
STAPLES        CLOUDY    52  43  71 SE7       30.14F
$$
  *****  WEATHER ELSEWHERE ACROSS MINNESOTA  *****

CITY           SKY/WX    TMP DP  RH WIND       PRES   REMARKS
DULUTH         CLOUDY    44  39  82 E10       30.19S
INTRNTL FALLS  CLOUDY    46  40  79 E7        30.20F
ELY            CLOUDY    45  37  76 CALM      30.20S
CLOQUET        CLOUDY    45  39  81 E6        30.18F
WHEATON        FAIR      55  46  71 E12       30.10F
BRAINERD       CLOUDY    51  43  74 E7        30.16F
HIBBING        CLOUDY    51  41  68 E8        30.18S
ALEXANDRIA     CLOUDY    52  45  77 E12       30.13F
SAINT CLOUD    MOCLDY    57  45  64 NE9       30.13S
MINNEAPOLIS    FAIR      55  44  66 NE9       30.11S
$$

  *****  WEATHER ACROSS SOUTH DAKOTA  *****

CITY           SKY/WX    TMP DP  RH WIND       PRES   REMARKS
SIOUX FALLS    FAIR      67  57  70 E16       30.00F
BROOKINGS      NOT AVBL
WATERTOWN      FAIR      59  51  75 E13       30.03F
HURON          MOSUNNY   68  55  63 E13       29.96F
SISSETON         N/A     59  50  72 SE10      30.06F
ABERDEEN       MOSUNNY   62  50  64 E17       30.03F
MITCHELL       SUNNY     73  60  63 E14       29.96F
PIERRE         CLOUDY    66  57  72 SE14      29.92F
MOBRIDGE       CLOUDY    62  51  67 E8        29.97F
RAPID CITY     CLOUDY    51  50  96 SE3       29.94F
$$

  *****  SOME WEATHER IN NEARBY STATES *****

CITY           SKY/WX    TMP DP  RH WIND       PRES   REMARKS
GLASGOW MT     CLOUDY    49  45  86 SE21      29.88F
GREAT FALLS MT MOSUNNY   64  44  48 SW14      29.73F
CHEYENNE WY    RAIN      53  49  86 S3        29.95R FOG
SCOTTSBLUFF NE CLOUDY    65  57  75 NE3       29.85F
OMAHA NE       FAIR      82  57  42 SE7       29.95F
DES MOINES IA  PTSUNNY   79  61  53 CALM      29.96F
DAVENPORT IA   NOT AVBL
CHICAGO IL     FAIR      63  57  81 NE24G30   29.95R
EAU CLAIRE WI  FAIR      58  43  57 N9        30.08F
LA CROSSE WI   CLOUDY    58  50  75 N6        30.07R
$$

  *****  SOME NATIONAL WEATHER *****

CITY           SKY/WX    TMP DP  RH WIND       PRES   REMARKS
LA GUARDIA NY  CLOUDY    74  60  61 S7        29.91R
RALEIGH NC     LGT RAIN  67  63  87 CALM      29.97S
ATLANTA GA     MOCLDY    68  64  88 E8        29.96S
NEW ORLEANS LA FAIR      83  69  62 N5        29.86R
OKLAHOMA CITY  FAIR      84  55  36 SE10      29.94F
ALBUQUERQUE NM MOSUNNY   76  41  28 W18G28    29.94S
SALT LAKE CITY PTSUNNY   60  41  49 SE9       29.97S
LOS ANGELES CA SUNNY     72  60  66 W18       29.87F
BOISE ID       CLOUDY    59  51  75 W13       29.95R
SEATTLE WA     DRIZZLE   61  57  88 S10       29.89S
$$

*** WEATHER ACROSS MANITOBA...SASKATCHEWAN AND ONTARIO ***
                ***ONTARIO***

CITY           SKY/WX    TMP DP  RH WIND       PRES   REMARKS
GERALDTON      PTCLDY    41  32  70 NE5       30.23S
THUNDER BAY    CLOUDY    45  36  70 NE6       30.23F
SIOUX LOOKOUT  CLOUDY    39  36  87 SE3       30.24F
TORONTO        MOCLDY    68  59  73 SE7       29.89R
BIG TROUT LK   CLEAR     48  28  46 SW10G20   30.15F
PICKLE LAKE    CLOUDY    39  32  75 SW6       30.24F
DRYDEN         CLOUDY    41  37  87 SE7       30.23S
KENORA         CLOUDY    46  41  81 E9        30.20F
$$
                *** MANITOBA***

CITY           SKY/WX    TMP DP  RH WIND       PRES   REMARKS
BRANDON        CLOUDY    46  39  76 SE9       30.12F
DAUPHIN        SUNNY     52  41  66 S10       30.09F
ISLAND LAKE    PTCLDY    50  37  62 SW6       30.12F
PILOT MOUND      N/A     50  43  76 SE9         N/A
THE PAS        MOSUNNY   54  39  58 S12       29.99F
THOMPSON       MOCLDY    52  39  62 S13       29.99F
WINNIPEG       CLOUDY    52  43  71 S5        30.17F
LYNN LAKE      SUNNY     52  37  58 S14G22    29.89F
CHURCHILL      CLOUDY    45  41  87 W3        29.89S
GILLAM         MOCLDY    52  37  58 SW12      29.98F
$$
                ***SASKATCHEWAN***

CITY           SKY/WX    TMP DP  RH WIND       PRES   REMARKS
ESTEVAN        PTSUNNY   50  43  76 SE17      30.02F
KINDERSLEY     PTSUNNY   61  46  59 S22G31    29.75F
LLOYDMINSTER   PTSUNNY   64  46  52 S17G28    29.68F
PRINCE ALBERT  MOSUNNY   57  41  54 S14G21    29.89F
REGINA         PTSUNNY   50  43  76 SE22      29.96F
YORKTON        MOSUNNY   52  39  62 SE14G21   30.03
N. BATTLEFORD  SUNNY     63  46  55 S18G26    29.79F
LA RONGE       PTSUNNY   57  43  58 SE13      29.84F
SASKATOON      MOSUNNY   59  43  55 S21G30    29.87F
SWIFT CURRENT  CLOUDY    52  45  76 S23G30    29.82F
$$
NOTE: THESE ARE AUTOMATED STATIONS WITH LIMITED QUALITY CONTROL
      "FAIR" INDICATES FEW OR NO CLOUDS BELOW 12,000 FEET WITH NO
      SIGNIFICANT WEATHER AND/OR OBSTRUCTIONS TO VISIBILITY.
      SKY/WX - SKY CONDITION AND SIGNIFICANT WEATHER.
      TMP - AIR TEMPERATURE.    DP   - DEWPOINT TEMPERATURE.
      RH  - RELATIVE HUMIDITY.  PRES - PRESSURE.
      HX  - HEAT INDEX.         WCI  - WIND CHILL INDEX.
$


USA.gov is the U.S. government's official web portal to all federal, state and local government web resources and services.